Weather History for Cape Girardeau, MO

Change the Weather History Date:

Wednesday, December 19, 2012

  Actual Average Record
Temperature  
Mean Temperature 46 °F 35 °F  
Max Temperature 60 °F 44 °F 66 °F (1976)
Min Temperature 32 °F 26 °F 2 °F (1963)
Degree Days  
Heating Degree Days 19 30  
Month to date heating degree days 313 527  
Since 1 July heating degree days 1252 1378  
Cooling Degree Days 0 0  
Month to date cooling degree days 0 0  
Year to date cooling degree days 1784 1453  
Moisture  
Dew Point 39 °F    
Average Humidity 79    
Maximum Humidity 100    
Minimum Humidity 57    
Precipitation  
Precipitation 0.00 in 0.13 in 1.14 in (1973)
Month to date precipitation 0.90 2.70  
Year to date precipitation 26.18 45.26  
Sea Level Pressure  
Sea Level Pressure 29.88 in    
Wind  
Wind Speed 9 mph (East)    
Max Wind Speed 24 mph    
Max Gust Speed 31 mph    
Visibility 6 miles    
Events Fog    
T = Trace of Precipitation, MM = Missing Value Source: NWS Daily Summary

Daily Weather History Graph

Daily Weather History Graph

Search for Another Location

Airport:

Trip Planner

Search our weather history database for the weather conditions in past years. The results will help you decide how hot, cold, wet, or windy it might be!

Date:

Astronomy

Dec. 19, 2012 Rise Set
Actual Time 7:07 AM CST 4:43 PM CST
Civil Twilight 6:38 AM CST 5:12 PM CST
Nautical Twilight 6:05 AM CST 5:45 PM CST
Astronomical Twilight 5:34 AM CST 6:17 PM CST
Moon 11:25 AM CST (12/19) No Moon Set
Length of Visible Light 10h 34m
Length of Day
9h 36m
Waxing Crescent, 45% of the Moon is Illuminated
Dec 19
Waxing Crescent
Dec 19
First Quarter
Dec 28
Full
Jan 4
Last Quarter
Jan 11
New

Hourly Weather History & Observations

Time (CST) Temp. Windchill Dew Point Humidity Pressure Visibility Wind Dir Wind Speed Gust Speed Precip Events Conditions
12:21 AM 35.6 °F - 35.6 °F 100% 29.90 in 0.5 mi Calm Calm - N/A Fog Fog
12:37 AM 33.8 °F - 33.8 °F 100% 29.90 in 0.2 mi Calm Calm - N/A Fog Fog
12:53 AM 35.1 °F - 34.0 °F 96% 29.91 in 0.2 mi Calm Calm - N/A Fog Fog
1:31 AM 33.8 °F - 33.8 °F 100% 29.91 in 0.2 mi Calm Calm - N/A Fog Fog
1:42 AM 33.8 °F - 33.8 °F 100% 29.92 in 0.2 mi Calm Calm - N/A Fog Fog
1:53 AM 33.1 °F - 33.1 °F 100% 29.92 in 0.5 mi Calm Calm - N/A Fog Fog
2:13 AM 32.0 °F 27.5 °F 30.2 °F 93% 29.92 in 0.2 mi NNE 4.6 mph - N/A Fog Fog
2:21 AM 32.0 °F 27.5 °F 30.2 °F 93% 29.92 in 0.8 mi NE 4.6 mph - N/A   Mist
2:30 AM 33.8 °F - 32.0 °F 93% 29.92 in 1.5 mi Calm Calm - N/A   Mostly Cloudy
2:43 AM 33.8 °F 29.6 °F 32.0 °F 93% 29.93 in 1.5 mi SSE 4.6 mph - N/A   Scattered Clouds
2:49 AM 33.8 °F 30.8 °F 33.8 °F 100% 29.94 in 0.5 mi ESE 3.5 mph - N/A Fog Fog
2:53 AM 34.0 °F - 33.1 °F 96% 29.94 in 0.2 mi Calm Calm - N/A Fog Fog
3:04 AM 33.8 °F 29.6 °F 33.8 °F 100% 29.94 in 0.2 mi NNE 4.6 mph - N/A Fog Fog
3:38 AM 33.8 °F 30.8 °F 33.8 °F 100% 29.94 in 0.2 mi ENE 3.5 mph - N/A Fog Fog
3:53 AM 34.0 °F 28.8 °F 34.0 °F 100% 29.94 in 0.2 mi ENE 5.8 mph - N/A Fog Fog
4:13 AM 37.4 °F 30.8 °F 37.4 °F 100% 29.93 in 1.0 mi NE 9.2 mph - N/A   Mist
4:16 AM 37.4 °F 31.4 °F 37.4 °F 100% 29.93 in 3.0 mi NE 8.1 mph - N/A   Mostly Cloudy
4:23 AM 37.4 °F 29.8 °F 37.4 °F 100% 29.93 in 9.0 mi NE 11.5 mph - N/A   Scattered Clouds
4:53 AM 37.9 °F 30.9 °F 36.0 °F 93% 29.94 in 10.0 mi NE 10.4 mph - N/A   Clear
5:53 AM 37.9 °F - 34.0 °F 86% 29.98 in 10.0 mi Calm Calm - N/A   Clear
6:53 AM 35.1 °F 31.0 °F 33.1 °F 92% 29.99 in 8.0 mi ENE 4.6 mph - N/A   Clear
8:53 AM 43.0 °F 38.8 °F 37.0 °F 80% 29.97 in 9.0 mi ENE 6.9 mph - N/A   Clear
9:53 AM 46.9 °F - 41.0 °F 80% 29.97 in 10.0 mi East 6.9 mph - N/A   Clear
10:53 AM 48.9 °F - 41.0 °F 74% 29.95 in 10.0 mi East 8.1 mph - N/A   Clear
11:53 AM 54.0 °F - 43.0 °F 66% 29.91 in 10.0 mi East 10.4 mph - N/A   Partly Cloudy
12:19 PM 55.4 °F - 44.6 °F 67% 29.90 in 10.0 mi ESE 9.2 mph - N/A   Overcast
12:53 PM 55.9 °F - 46.0 °F 69% 29.88 in 10.0 mi SE 8.1 mph - N/A   Overcast
1:53 PM 55.9 °F - 46.9 °F 72% 29.86 in 10.0 mi SE 9.2 mph - N/A   Overcast
2:53 PM 55.9 °F - 48.0 °F 75% 29.84 in 10.0 mi SE 6.9 mph - N/A   Overcast
3:53 PM 57.0 °F - 50.0 °F 77% 29.83 in 10.0 mi SE 8.1 mph - N/A   Overcast
4:53 PM 57.0 °F - 51.1 °F 81% 29.83 in 10.0 mi ESE 6.9 mph - N/A   Overcast
5:53 PM 57.9 °F - 51.1 °F 78% 29.81 in 10.0 mi SE 8.1 mph - N/A   Overcast
6:53 PM 57.9 °F - 51.1 °F 78% 29.78 in 10.0 mi SE 15.0 mph - N/A   Partly Cloudy
7:53 PM 57.9 °F - 48.9 °F 72% 29.76 in 10.0 mi SSE 18.4 mph 24.2 mph N/A   Clear
8:53 PM 57.9 °F - 46.0 °F 65% 29.73 in 10.0 mi SSE 16.1 mph 25.3 mph N/A   Overcast
9:53 PM 59.0 °F - 44.1 °F 58% 29.69 in 10.0 mi SSE 16.1 mph - N/A   Overcast
10:53 PM 59.0 °F - 45.0 °F 60% 29.64 in 10.0 mi SSE 18.4 mph 27.6 mph N/A   Overcast
11:53 PM 60.1 °F - 45.0 °F 57% 29.59 in 10.0 mi SSE 20.7 mph 29.9 mph N/A   Overcast